Date,TemperatureHighF,TemperatureAvgF,TemperatureLowF,DewpointHighF,DewpointAvgF,DewpointLowF,HumidityHigh,HumidityAvg,HumidityLow,PressureMaxIn,PressureMinIn,WindSpeedMaxMPH,WindSpeedAvgMPH,GustSpeedMaxMPH,PrecipitationSumIn
2013-3-1,52,50,48,51,49,47,98,97,93,30.30,30.23,16,9,0,0.00
2013-3-2,53,48,39,50,46,36,97,92,84,30.23,30.00,16,6,0,0.00
2013-3-3,48,40,34,39,35,32,98,85,60,30.26,30.15,6,1,0,0.00
2013-3-4,49,40,32,37,33,30,98,79,48,30.26,29.89,4,2,0,0.00
2013-3-5,48,42,38,41,37,30,97,84,64,29.89,29.68,5,1,0,0.00
2013-3-6,42,40,38,41,39,37,98,96,91,29.84,29.53,8,3,0,0.00
2013-3-7,49,43,39,43,40,37,98,92,77,30.04,29.84,10,4,0,0.00
2013-3-8,50,42,36,41,38,34,98,87,66,30.19,30.03,4,1,0,0.00
2013-3-9,53,41,31,43,37,30,98,86,63,30.45,30.19,3,1,0,0.00
2013-3-10,46,41,36,43,39,35,97,93,80,30.45,30.38,5,1,0,0.00
2013-3-11,48,44,41,45,42,40,98,94,82,30.40,30.10,6,1,0,0.00
2013-3-12,51,48,44,50,47,43,98,97,94,30.10,30.01,14,9,0,0.00
2013-3-13,52,49,48,50,48,45,100,95,87,30.14,30.03,16,9,0,0.00
2013-3-14,53,48,46,47,46,44,98,92,74,30.10,29.98,16,9,0,0.00
2013-3-15,56,50,46,50,47,44,98,91,78,30.15,30.08,18,14,0,0.00
2013-3-16,49,44,36,45,41,33,95,88,71,30.09,29.81,21,10,0,0.00
2013-3-17,48,39,31,38,34,30,100,84,57,30.14,29.92,15,4,0,0.00
2013-3-18,52,42,36,41,36,34,93,80,53,30.20,30.05,20,5,0,0.00
2013-3-19,50,41,35,42,37,33,97,87,55,30.19,29.55,7,1,0,0.00
2013-3-20,49,44,36,48,40,-100,99,88,72,29.97,29.31,24,12,0,0.00
2013-3-21,46,38,33,40,34,31,97,88,63,30.17,29.95,18,5,0,0.00
2013-3-22,44,36,30,36,32,29,98,86,61,30.33,30.16,6,1,0,0.00
2013-3-23,47,39,33,36,32,28,96,79,50,30.36,30.26,4,1,0,0.00
2013-3-24,51,40,31,37,32,29,96,76,45,30.26,30.09,1,0,0,0.00
2013-3-25,58,46,35,37,32,-100,90,63,35,30.09,29.89,3,-21,0,0.00
2013-3-26,58,50,44,43,38,33,80,65,53,29.97,29.91,2,0,0,0.00
2013-3-27,54,48,43,47,42,38,90,79,65,29.94,29.89,2,0,0,0.00
2013-3-28,59,49,44,49,46,41,98,87,66,30.10,29.94,4,1,0,0.00
2013-3-29,61,51,42,49,45,41,97,81,56,30.21,30.10,3,1,0,0.00
2013-3-30,64,51,39,48,42,-100,97,75,45,30.22,30.03,6,2,0,0.00
2013-3-31,67,55,45,46,42,39,81,64,42,30.03,29.87,8,2,0,0.00